Terminal Aerodrome Forecast
Issued by NWS Pendleton, OR

Home | Current Version | Previous Version | Text Only | Print | Product List | Glossary On
Versions: 1 2 3 4 5 6 7 8 9 10 11 12 13 14 15 16 17 18 19 20 21
000
FTUS46 KPDT 272300
TAFPDT
TAF
KPDT 272327Z 2800/2824 26008KT 6SM BR SCT002 OVC120
     FM280300 24007KT 5SM BR BKN010 OVC050
     FM281200 20004KT 3SM BR BKN005 OVC020
     FM281900 31006KT 6SM BR SCT010 OVC035
     FM282200 32007KT P6SM SCT040 BKN200=

USA.gov is the U.S. government's official web portal to all federal, state and local government web resources and services.